Time,TemperatureF,DewpointF,PressureIn,WindDirection,WindDirectionDegrees,WindSpeedMPH,WindSpeedGustMPH,Humidity,HourlyPrecipIn,Conditions,Clouds,dailyrainin,SolarRadiationWatts/m^2,SoftwareType,DateUTC
2013-02-09 00:04:00,6.4,4.8,30.39,SSE,147,0.0,0.0,93,0.00,,,0.00,0,WeatherHawk,2013-02-09 06:04:00,
2013-02-09 00:09:00,6.5,5.3,30.39,SSE,147,0.0,0.0,95,0.00,,,0.00,0,WeatherHawk,2013-02-09 06:09:00,
2013-02-09 00:14:00,7.5,7.5,30.39,SSE,148,0.0,0.0,100,0.00,,,0.00,0,WeatherHawk,2013-02-09 06:14:00,
2013-02-09 00:19:00,8.4,8.4,30.38,SSE,147,0.0,0.0,100,0.00,,,0.00,0,WeatherHawk,2013-02-09 06:19:00,
2013-02-09 00:24:00,6.7,6.7,30.38,SSE,147,0.0,0.0,100,0.00,,,0.00,0,WeatherHawk,2013-02-09 06:24:00,
2013-02-09 00:30:00,6.5,6.5,30.38,SSE,147,0.0,0.0,100,0.00,,,0.00,1,WeatherHawk,2013-02-09 06:30:00,
2013-02-09 00:35:00,5.6,4.7,30.38,SSE,147,0.0,0.0,96,0.00,,,0.00,0,WeatherHawk,2013-02-09 06:35:00,
2013-02-09 00:40:00,6.2,5.6,30.38,SSE,147,0.0,0.0,97,0.00,,,0.00,0,WeatherHawk,2013-02-09 06:40:00,
2013-02-09 00:45:00,5.3,4.2,30.38,SSE,147,0.0,0.0,95,0.00,,,0.00,1,WeatherHawk,2013-02-09 06:45:00,
2013-02-09 00:50:00,4.4,3.2,30.38,SSE,147,0.0,0.0,95,0.00,,,0.00,0,WeatherHawk,2013-02-09 06:50:00,
2013-02-09 00:55:00,1.8,0.0,30.39,SSE,147,0.0,0.0,92,0.00,,,0.00,0,WeatherHawk,2013-02-09 06:55:00,
2013-02-09 01:00:00,4.3,2.5,30.38,SSE,147,0.0,0.0,92,0.00,,,0.00,1,WeatherHawk,2013-02-09 07:00:00,
2013-02-09 01:05:00,4.2,2.8,30.39,SSE,147,0.0,0.0,94,0.00,,,0.00,0,WeatherHawk,2013-02-09 07:05:00,
2013-02-09 01:10:00,6.3,5.4,30.39,SSE,147,0.0,0.0,96,0.00,,,0.00,0,WeatherHawk,2013-02-09 07:10:00,
2013-02-09 01:15:00,9.3,9.3,30.39,SSE,160,0.0,0.0,100,0.00,,,0.00,0,WeatherHawk,2013-02-09 07:15:00,
2013-02-09 01:20:00,9.3,9.3,30.39,SSE,156,0.0,0.0,100,0.00,,,0.00,0,WeatherHawk,2013-02-09 07:20:00,
2013-02-09 01:26:00,9.6,9.6,30.39,SSE,167,0.0,0.0,100,0.00,,,0.00,0,WeatherHawk,2013-02-09 07:26:00,
2013-02-09 01:31:00,9.8,9.8,30.39,SSE,163,0.0,0.0,100,0.00,,,0.00,0,WeatherHawk,2013-02-09 07:31:00,
2013-02-09 01:36:00,10.1,10.1,30.39,South,172,0.0,0.0,100,0.00,,,0.00,0,WeatherHawk,2013-02-09 07:36:00,
2013-02-09 01:41:00,11.2,11.2,30.38,South,176,0.0,0.0,100,0.00,,,0.00,0,WeatherHawk,2013-02-09 07:41:00,
2013-02-09 01:47:00,11.6,11.6,30.39,South,189,0.0,0.0,100,0.00,,,0.00,0,WeatherHawk,2013-02-09 07:47:00,
2013-02-09 01:52:00,11.9,11.9,30.40,South,189,0.0,0.0,100,0.00,,,0.00,1,WeatherHawk,2013-02-09 07:52:00,
2013-02-09 01:57:00,12.1,11.9,30.39,South,172,0.0,0.0,99,0.00,,,0.00,0,WeatherHawk,2013-02-09 07:57:00,
2013-02-09 02:02:00,12.3,12.1,30.38,South,171,0.0,0.0,99,0.00,,,0.00,0,WeatherHawk,2013-02-09 08:02:00,
2013-02-09 02:07:00,13.0,12.8,30.38,SE,146,0.0,0.0,99,0.00,,,0.00,0,WeatherHawk,2013-02-09 08:07:00,
2013-02-09 02:12:00,13.3,13.1,30.38,SSE,163,0.0,0.0,99,0.00,,,0.00,0,WeatherHawk,2013-02-09 08:12:00,
2013-02-09 02:17:00,13.5,13.3,30.37,SE,141,0.0,0.0,99,0.00,,,0.00,0,WeatherHawk,2013-02-09 08:17:00,
2013-02-09 02:22:00,13.4,12.9,30.37,SSE,159,0.0,0.0,98,0.00,,,0.00,0,WeatherHawk,2013-02-09 08:22:00,
2013-02-09 02:27:00,13.5,13.0,30.37,South,170,0.0,0.0,98,0.00,,,0.00,0,WeatherHawk,2013-02-09 08:27:00,
2013-02-09 02:33:00,13.6,13.0,30.36,SSW,202,0.0,0.0,97,0.00,,,0.00,0,WeatherHawk,2013-02-09 08:33:00,
2013-02-09 02:38:00,13.8,13.1,30.37,SSW,195,0.0,0.0,97,0.00,,,0.00,1,WeatherHawk,2013-02-09 08:38:00,
2013-02-09 02:43:00,14.0,13.5,30.36,South,185,0.0,0.0,98,0.00,,,0.00,0,WeatherHawk,2013-02-09 08:43:00,
2013-02-09 02:49:00,14.0,13.3,30.37,South,178,0.0,0.0,97,0.00,,,0.00,0,WeatherHawk,2013-02-09 08:49:00,
2013-02-09 02:54:00,14.1,13.4,30.36,South,187,0.0,0.0,97,0.00,,,0.00,1,WeatherHawk,2013-02-09 08:54:00,
2013-02-09 02:59:00,14.2,13.5,30.36,SSW,193,0.0,0.0,97,0.00,,,0.00,1,WeatherHawk,2013-02-09 08:59:00,
2013-02-09 03:04:00,14.4,13.7,30.36,SSW,198,0.0,0.0,97,0.00,,,0.00,1,WeatherHawk,2013-02-09 09:04:00,
2013-02-09 03:09:00,14.5,14.0,30.36,SSE,165,0.0,0.0,98,0.00,,,0.00,0,WeatherHawk,2013-02-09 09:09:00,
2013-02-09 03:14:00,14.4,14.0,30.35,South,175,0.0,0.0,98,0.00,,,0.00,0,WeatherHawk,2013-02-09 09:14:00,
2013-02-09 03:20:00,14.4,13.7,30.36,South,175,0.0,0.0,97,0.00,,,0.00,1,WeatherHawk,2013-02-09 09:20:00,
2013-02-09 03:25:00,14.5,13.8,30.36,South,175,0.0,0.0,97,0.00,,,0.00,0,WeatherHawk,2013-02-09 09:25:00,
2013-02-09 03:30:00,14.5,13.8,30.36,SSE,158,0.0,0.0,97,0.00,,,0.00,0,WeatherHawk,2013-02-09 09:30:00,
2013-02-09 03:35:00,14.6,13.9,30.35,SSE,163,0.0,0.0,97,0.00,,,0.00,0,WeatherHawk,2013-02-09 09:35:00,
2013-02-09 03:40:00,14.7,14.0,30.35,South,171,0.0,0.0,97,0.00,,,0.00,0,WeatherHawk,2013-02-09 09:40:00,
2013-02-09 03:45:00,14.8,14.3,30.35,South,176,0.0,0.0,98,0.00,,,0.00,0,WeatherHawk,2013-02-09 09:45:00,
2013-02-09 03:50:00,14.9,14.4,30.35,South,176,0.0,0.0,98,0.00,,,0.00,1,WeatherHawk,2013-02-09 09:50:00,
2013-02-09 03:55:00,14.9,14.5,30.35,SSE,148,0.0,0.0,98,0.00,,,0.00,1,WeatherHawk,2013-02-09 09:55:00,
2013-02-09 04:00:00,14.9,14.5,30.35,SSE,163,0.0,-999.0,98,0.00,,,0.00,0,WeatherHawk,2013-02-09 10:00:00,
2013-02-09 04:05:00,14.9,14.5,30.35,SSE,163,0.0,0.0,98,0.00,,,0.00,0,WeatherHawk,2013-02-09 10:05:00,
2013-02-09 04:10:00,15.0,14.3,30.35,SSE,163,0.0,0.0,97,0.00,,,0.00,0,WeatherHawk,2013-02-09 10:10:00,
2013-02-09 04:15:00,15.1,14.6,30.35,South,171,0.0,0.0,98,0.00,,,0.00,0,WeatherHawk,2013-02-09 10:15:00,
2013-02-09 04:20:00,15.2,14.7,30.35,SSE,150,0.0,0.0,98,0.00,,,0.00,0,WeatherHawk,2013-02-09 10:20:00,
2013-02-09 04:26:00,15.2,14.7,30.34,SSE,167,0.0,0.0,98,0.00,,,0.00,0,WeatherHawk,2013-02-09 10:26:00,
2013-02-09 04:31:00,15.3,14.8,30.35,SSE,161,0.0,0.0,98,0.00,,,0.00,0,WeatherHawk,2013-02-09 10:31:00,
2013-02-09 04:36:00,15.3,14.9,30.35,SSE,165,0.0,0.0,98,0.00,,,0.00,0,WeatherHawk,2013-02-09 10:36:00,
2013-02-09 04:42:00,15.5,15.0,30.35,South,179,0.0,0.0,98,0.00,,,0.00,0,WeatherHawk,2013-02-09 10:42:00,
2013-02-09 04:47:00,15.7,15.2,30.35,South,172,0.0,0.0,98,0.00,,,0.00,0,WeatherHawk,2013-02-09 10:47:00,
2013-02-09 04:52:00,15.8,15.3,30.34,SSW,194,0.0,0.0,98,0.00,,,0.00,1,WeatherHawk,2013-02-09 10:52:00,
2013-02-09 04:57:00,15.6,15.1,30.33,SE,145,0.0,0.0,98,0.00,,,0.00,0,WeatherHawk,2013-02-09 10:57:00,
2013-02-09 05:02:00,15.5,15.0,30.34,SSE,148,0.0,0.0,98,0.00,,,0.00,0,WeatherHawk,2013-02-09 11:02:00,
2013-02-09 05:08:00,15.6,15.2,30.34,South,173,0.0,0.0,98,0.00,,,0.00,0,WeatherHawk,2013-02-09 11:08:00,
2013-02-09 05:13:00,15.8,15.3,30.35,South,181,0.0,0.0,98,0.00,,,0.00,0,WeatherHawk,2013-02-09 11:13:00,
2013-02-09 05:18:00,15.8,15.3,30.34,South,169,0.0,0.0,98,0.00,,,0.00,0,WeatherHawk,2013-02-09 11:18:00,
2013-02-09 05:23:00,16.1,15.7,30.34,SSE,166,0.0,0.0,98,0.00,,,0.00,0,WeatherHawk,2013-02-09 11:23:00,
2013-02-09 05:28:00,16.5,16.3,30.34,SSE,159,0.0,0.0,99,0.00,,,0.00,0,WeatherHawk,2013-02-09 11:28:00,
2013-02-09 05:33:00,16.7,16.5,30.34,South,170,0.0,0.0,99,0.00,,,0.00,0,WeatherHawk,2013-02-09 11:33:00,
2013-02-09 05:38:00,16.7,16.4,30.34,South,176,0.0,0.0,99,0.00,,,0.00,0,WeatherHawk,2013-02-09 11:38:00,
2013-02-09 05:43:00,16.9,16.9,30.34,SSE,164,0.0,0.0,100,0.00,,,0.00,0,WeatherHawk,2013-02-09 11:43:00,
2013-02-09 05:48:00,17.3,17.3,30.34,South,170,0.0,0.0,100,0.00,,,0.00,0,WeatherHawk,2013-02-09 11:48:00,
2013-02-09 05:54:00,17.6,17.6,30.33,South,178,0.0,0.0,100,0.00,,,0.00,0,WeatherHawk,2013-02-09 11:54:00,
2013-02-09 05:59:00,17.9,17.9,30.34,South,176,0.0,0.0,100,0.00,,,0.00,0,WeatherHawk,2013-02-09 11:59:00,
2013-02-09 06:04:00,18.0,18.0,30.33,South,183,0.0,0.0,100,0.00,,,0.00,0,WeatherHawk,2013-02-09 12:04:00,
2013-02-09 06:09:00,18.1,18.1,30.34,South,176,0.0,0.0,100,0.00,,,0.00,0,WeatherHawk,2013-02-09 12:09:00,
2013-02-09 06:14:00,18.1,18.1,30.33,SSE,154,0.0,0.0,100,0.00,,,0.00,0,WeatherHawk,2013-02-09 12:14:00,
2013-02-09 06:19:00,18.2,18.2,30.33,SSW,204,0.0,0.0,100,0.00,,,0.00,0,WeatherHawk,2013-02-09 12:19:00,
2013-02-09 06:24:00,18.3,18.3,30.33,South,178,0.0,0.0,100,0.00,,,0.00,0,WeatherHawk,2013-02-09 12:24:00,
2013-02-09 06:29:00,18.3,18.3,30.33,SSE,168,0.0,0.0,100,0.00,,,0.00,0,WeatherHawk,2013-02-09 12:29:00,
2013-02-09 06:34:00,18.5,18.5,30.33,South,179,0.0,0.0,100,0.00,,,0.00,0,WeatherHawk,2013-02-09 12:34:00,
2013-02-09 06:39:00,18.6,18.6,30.34,SSE,168,0.0,0.0,100,0.00,,,0.00,0,WeatherHawk,2013-02-09 12:39:00,
2013-02-09 06:45:00,18.7,18.7,30.34,South,173,0.0,0.0,100,0.00,,,0.00,0,WeatherHawk,2013-02-09 12:45:00,
2013-02-09 06:50:00,18.9,18.9,30.34,South,177,0.0,0.0,100,0.00,,,0.00,0,WeatherHawk,2013-02-09 12:50:00,
2013-02-09 06:55:00,19.1,19.1,30.33,South,177,0.0,0.0,100,0.00,,,0.00,0,WeatherHawk,2013-02-09 12:55:00,
2013-02-09 07:00:00,19.2,19.2,30.34,South,169,0.0,-999.0,100,0.00,,,0.00,1,WeatherHawk,2013-02-09 13:00:00,
2013-02-09 07:05:00,19.2,19.2,30.33,South,176,0.0,0.0,100,0.00,,,0.00,1,WeatherHawk,2013-02-09 13:05:00,
2013-02-09 07:10:00,19.4,19.4,30.33,South,179,0.0,0.0,100,0.00,,,0.00,3,WeatherHawk,2013-02-09 13:10:00,
2013-02-09 07:15:00,19.5,19.5,30.33,South,186,2.0,0.0,100,0.00,,,0.00,5,WeatherHawk,2013-02-09 13:15:00,
2013-02-09 07:20:00,19.5,19.5,30.33,SSE,168,4.0,0.0,100,0.00,,,0.00,8,WeatherHawk,2013-02-09 13:20:00,
2013-02-09 07:25:00,19.6,19.6,30.33,South,176,4.0,5.0,100,0.00,,,0.00,10,WeatherHawk,2013-02-09 13:25:00,
2013-02-09 07:30:00,19.7,19.7,30.33,South,170,5.0,5.0,100,0.00,,,0.00,12,WeatherHawk,2013-02-09 13:30:00,
2013-02-09 07:35:00,19.7,19.7,30.32,South,187,3.0,8.0,100,0.00,,,0.00,15,WeatherHawk,2013-02-09 13:35:00,
2013-02-09 07:40:00,19.7,19.7,30.33,South,175,7.0,8.0,100,0.00,,,0.00,18,WeatherHawk,2013-02-09 13:40:00,
2013-02-09 07:45:00,19.7,19.7,30.33,South,182,6.0,7.0,100,0.00,,,0.00,20,WeatherHawk,2013-02-09 13:45:00,
2013-02-09 07:50:00,19.6,19.6,30.33,SSE,164,7.0,7.0,100,0.00,,,0.00,27,WeatherHawk,2013-02-09 13:50:00,
2013-02-09 07:55:00,19.7,19.7,30.32,South,190,6.0,7.0,100,0.00,,,0.00,29,WeatherHawk,2013-02-09 13:55:00,
2013-02-09 08:00:00,19.7,19.7,30.33,SSE,168,6.0,7.0,100,0.00,,,0.00,32,WeatherHawk,2013-02-09 14:00:00,
2013-02-09 08:05:00,19.6,19.6,30.32,SSE,154,4.0,10.0,100,0.00,,,0.00,37,WeatherHawk,2013-02-09 14:05:00,
2013-02-09 08:10:00,19.5,19.5,30.32,South,172,6.0,10.0,100,0.00,,,0.00,42,WeatherHawk,2013-02-09 14:10:00,
2013-02-09 08:15:00,19.6,19.6,30.32,South,175,4.0,9.0,100,0.00,,,0.00,47,WeatherHawk,2013-02-09 14:15:00,
2013-02-09 08:20:00,19.6,19.6,30.31,South,181,4.0,9.0,100,0.00,,,0.00,53,WeatherHawk,2013-02-09 14:20:00,
2013-02-09 08:25:00,19.9,19.9,30.31,SSW,193,3.0,8.0,100,0.00,,,0.00,54,WeatherHawk,2013-02-09 14:25:00,
2013-02-09 08:30:00,19.8,19.8,30.31,South,186,3.0,-999.0,100,0.00,,,0.00,58,WeatherHawk,2013-02-09 14:30:00,
2013-02-09 08:35:00,19.8,19.8,30.32,South,184,8.0,8.0,100,0.00,,,0.00,68,WeatherHawk,2013-02-09 14:35:00,
2013-02-09 08:40:00,20.1,20.1,30.31,South,173,5.0,8.0,100,0.00,,,0.00,66,WeatherHawk,2013-02-09 14:40:00,
2013-02-09 08:45:00,20.3,20.3,30.31,South,189,5.0,8.0,100,0.00,,,0.00,81,WeatherHawk,2013-02-09 14:45:00,
2013-02-09 08:50:00,20.3,20.3,30.31,SSE,166,7.0,8.0,100,0.00,,,0.00,79,WeatherHawk,2013-02-09 14:50:00,
2013-02-09 08:55:00,20.8,20.8,30.31,South,172,3.0,10.0,100,0.00,,,0.00,78,WeatherHawk,2013-02-09 14:55:00,
2013-02-09 09:00:00,20.7,20.7,30.30,SSE,166,4.0,10.0,100,0.00,,,0.00,81,WeatherHawk,2013-02-09 15:00:00,
2013-02-09 09:05:00,20.7,20.7,30.30,South,177,4.0,10.0,100,0.00,,,0.00,83,WeatherHawk,2013-02-09 15:05:00,
2013-02-09 09:10:00,20.9,20.9,30.30,SE,132,5.0,10.0,100,0.00,,,0.00,93,WeatherHawk,2013-02-09 15:10:00,
2013-02-09 09:15:00,20.9,20.9,30.30,South,184,7.0,10.0,100,0.00,,,0.00,92,WeatherHawk,2013-02-09 15:15:00,
2013-02-09 09:20:00,21.1,21.1,30.29,SE,134,6.0,10.0,100,0.00,,,0.00,100,WeatherHawk,2013-02-09 15:20:00,
2013-02-09 09:25:00,21.3,21.3,30.30,SSE,165,7.0,-999.0,100,0.00,,,0.00,107,WeatherHawk,2013-02-09 15:25:00,
2013-02-09 09:30:00,21.3,21.3,30.30,South,189,6.0,9.0,100,0.00,,,0.00,110,WeatherHawk,2013-02-09 15:30:00,
2013-02-09 09:35:00,21.4,21.4,30.29,South,178,9.0,10.0,100,0.00,,,0.00,113,WeatherHawk,2013-02-09 15:35:00,
2013-02-09 09:40:00,21.6,21.6,30.30,South,173,6.0,10.0,100,0.00,,,0.00,105,WeatherHawk,2013-02-09 15:40:00,
2013-02-09 09:45:00,21.9,21.9,30.30,South,177,8.0,10.0,100,0.00,,,0.00,115,WeatherHawk,2013-02-09 15:45:00,
2013-02-09 09:50:00,21.9,21.9,30.29,SSW,193,6.0,10.0,100,0.00,,,0.00,133,WeatherHawk,2013-02-09 15:50:00,
2013-02-09 09:55:00,22.1,22.1,30.29,South,183,6.0,10.0,100,0.00,,,0.00,134,WeatherHawk,2013-02-09 15:55:00,
2013-02-09 10:00:00,22.0,22.0,30.28,SSE,160,8.0,-999.0,100,0.00,,,0.00,156,WeatherHawk,2013-02-09 16:00:00,
2013-02-09 10:05:00,21.9,21.7,30.28,SSE,167,10.0,10.0,99,0.00,,,0.00,177,WeatherHawk,2013-02-09 16:05:00,
2013-02-09 10:10:00,22.4,22.1,30.28,SSW,194,6.0,10.0,99,0.00,,,0.00,166,WeatherHawk,2013-02-09 16:10:00,
2013-02-09 10:15:00,22.1,21.6,30.28,South,190,13.0,13.0,98,0.00,,,0.00,176,WeatherHawk,2013-02-09 16:15:00,
2013-02-09 10:20:00,22.7,22.2,30.28,South,178,7.0,13.0,98,0.00,,,0.00,179,WeatherHawk,2013-02-09 16:20:00,
2013-02-09 10:25:00,22.5,21.8,30.28,South,189,10.0,13.0,97,0.00,,,0.00,178,WeatherHawk,2013-02-09 16:25:00,
2013-02-09 10:30:00,22.7,21.8,30.28,South,180,8.0,13.0,96,0.00,,,0.00,168,WeatherHawk,2013-02-09 16:30:00,
2013-02-09 10:35:00,23.0,21.6,30.28,South,188,8.0,14.0,94,0.00,,,0.00,166,WeatherHawk,2013-02-09 16:35:00,
2013-02-09 10:40:00,23.5,22.0,30.29,South,180,5.0,14.0,94,0.00,,,0.00,172,WeatherHawk,2013-02-09 16:40:00,
2013-02-09 10:45:00,23.6,21.6,30.28,SSW,193,7.0,14.0,92,0.00,,,0.00,188,WeatherHawk,2013-02-09 16:45:00,
2013-02-09 10:50:00,23.7,21.0,30.28,South,174,7.0,14.0,89,0.00,,,0.00,223,WeatherHawk,2013-02-09 16:50:00,
2013-02-09 10:55:00,23.8,20.5,30.27,South,186,9.0,12.0,87,0.00,,,0.00,212,WeatherHawk,2013-02-09 16:55:00,
2013-02-09 11:00:00,24.1,20.5,30.27,SSE,164,9.0,12.0,86,0.00,,,0.00,223,WeatherHawk,2013-02-09 17:00:00,
2013-02-09 11:05:00,24.3,20.2,30.28,South,171,8.0,14.0,84,0.00,,,0.00,245,WeatherHawk,2013-02-09 17:05:00,
2013-02-09 11:10:00,24.2,19.5,30.27,SSE,163,12.0,14.0,82,0.00,,,0.00,262,WeatherHawk,2013-02-09 17:10:00,
2013-02-09 11:15:00,24.4,19.5,30.26,South,173,15.0,15.0,81,0.00,,,0.00,261,WeatherHawk,2013-02-09 17:15:00,
2013-02-09 11:20:00,24.8,19.5,30.26,SSE,155,12.0,-999.0,80,0.00,,,0.00,283,WeatherHawk,2013-02-09 17:20:00,
2013-02-09 11:25:00,24.9,19.3,30.26,South,170,10.0,13.0,79,0.00,,,0.00,256,WeatherHawk,2013-02-09 17:25:00,
2013-02-09 11:30:00,25.3,19.4,30.26,South,181,6.0,13.0,78,0.00,,,0.00,245,WeatherHawk,2013-02-09 17:30:00,
2013-02-09 11:35:00,25.2,18.7,30.26,South,187,8.0,16.0,76,0.00,,,0.00,252,WeatherHawk,2013-02-09 17:35:00,
2013-02-09 11:40:00,25.5,18.7,30.25,South,177,8.0,16.0,75,0.00,,,0.00,240,WeatherHawk,2013-02-09 17:40:00,
2013-02-09 11:45:00,25.8,19.0,30.25,South,177,5.0,11.0,75,0.00,,,0.00,252,WeatherHawk,2013-02-09 17:45:00,
2013-02-09 11:50:00,25.4,18.0,30.25,South,174,10.0,11.0,73,0.00,,,0.00,245,WeatherHawk,2013-02-09 17:50:00,
2013-02-09 11:55:00,26.1,18.6,30.25,South,173,6.0,12.0,73,0.00,,,0.00,255,WeatherHawk,2013-02-09 17:55:00,
2013-02-09 12:00:00,26.0,18.0,30.24,SSE,162,7.0,12.0,71,0.00,,,0.00,257,WeatherHawk,2013-02-09 18:00:00,
2013-02-09 12:05:00,26.4,18.6,30.23,South,173,6.0,12.0,72,0.00,,,0.00,294,WeatherHawk,2013-02-09 18:05:00,
2013-02-09 12:10:00,26.2,17.8,30.23,South,179,10.0,12.0,70,0.00,,,0.00,261,WeatherHawk,2013-02-09 18:10:00,
2013-02-09 12:15:00,26.8,18.0,30.23,SW,220,6.0,14.0,69,0.00,,,0.00,247,WeatherHawk,2013-02-09 18:15:00,
2013-02-09 12:20:00,27.3,18.8,30.23,SSW,205,5.0,14.0,70,0.00,,,0.00,257,WeatherHawk,2013-02-09 18:20:00,
2013-02-09 12:25:00,27.1,18.3,30.23,SSW,198,6.0,12.0,69,0.00,,,0.00,283,WeatherHawk,2013-02-09 18:25:00,
2013-02-09 12:30:00,26.9,17.4,30.22,South,169,5.0,12.0,67,0.00,,,0.00,301,WeatherHawk,2013-02-09 18:30:00,
2013-02-09 12:35:00,26.5,16.7,30.22,SSE,168,10.0,-999.0,66,0.00,,,0.00,282,WeatherHawk,2013-02-09 18:35:00,
2013-02-09 12:40:00,26.7,17.6,30.22,SSE,153,9.0,11.0,68,0.00,,,0.00,282,WeatherHawk,2013-02-09 18:40:00,
2013-02-09 12:45:00,27.2,18.1,30.22,South,186,9.0,11.0,68,0.00,,,0.00,303,WeatherHawk,2013-02-09 18:45:00,
2013-02-09 12:50:00,26.6,17.2,30.22,SE,137,14.0,15.0,67,0.00,,,0.00,281,WeatherHawk,2013-02-09 18:50:00,
2013-02-09 12:55:00,26.9,17.7,30.22,SSW,199,8.0,15.0,68,0.00,,,0.00,272,WeatherHawk,2013-02-09 18:55:00,
2013-02-09 13:00:00,26.9,17.4,30.21,South,171,9.0,15.0,67,0.00,,,0.00,338,WeatherHawk,2013-02-09 19:00:00,
2013-02-09 13:05:00,27.0,17.5,30.21,SSE,159,11.0,15.0,67,0.00,,,0.00,302,WeatherHawk,2013-02-09 19:05:00,
2013-02-09 13:10:00,27.0,17.5,30.22,South,172,11.0,15.0,67,0.00,,,0.00,287,WeatherHawk,2013-02-09 19:10:00,
2013-02-09 13:15:00,27.5,18.3,30.22,South,170,8.0,15.0,68,0.00,,,0.00,245,WeatherHawk,2013-02-09 19:15:00,
2013-02-09 13:20:00,28.4,19.5,30.22,SW,229,4.0,13.0,69,0.00,,,0.00,230,WeatherHawk,2013-02-09 19:20:00,
2013-02-09 13:25:00,27.4,18.2,30.22,South,176,7.0,13.0,68,0.00,,,0.00,240,WeatherHawk,2013-02-09 19:25:00,
2013-02-09 13:30:00,27.3,18.2,30.21,SSE,168,9.0,0.0,68,0.00,,,0.00,225,WeatherHawk,2013-02-09 19:30:00,
2013-02-09 13:35:00,27.2,18.4,30.21,South,173,9.0,11.0,69,0.00,,,0.00,221,WeatherHawk,2013-02-09 19:35:00,
2013-02-09 13:41:00,27.4,18.6,30.21,South,186,10.0,11.0,69,0.00,,,0.00,244,WeatherHawk,2013-02-09 19:41:00,
2013-02-09 13:46:00,27.4,18.6,30.21,South,190,5.0,11.0,69,0.00,,,0.00,226,WeatherHawk,2013-02-09 19:46:00,
2013-02-09 13:51:00,27.6,18.5,30.20,South,177,6.0,12.0,68,0.00,,,0.00,242,WeatherHawk,2013-02-09 19:51:00,
2013-02-09 13:56:00,27.4,18.3,30.20,South,172,9.0,12.0,68,0.00,,,0.00,238,WeatherHawk,2013-02-09 19:56:00,
2013-02-09 14:01:00,28.0,19.2,30.21,SSW,199,6.0,15.0,69,0.00,,,0.00,223,WeatherHawk,2013-02-09 20:01:00,
2013-02-09 14:06:00,28.0,19.2,30.20,South,179,6.0,15.0,69,0.00,,,0.00,206,WeatherHawk,2013-02-09 20:06:00,
2013-02-09 14:11:00,27.5,18.6,30.20,SSW,200,10.0,13.0,69,0.00,,,0.00,212,WeatherHawk,2013-02-09 20:11:00,
2013-02-09 14:16:00,27.7,19.2,30.19,SW,232,10.0,13.0,70,0.00,,,0.00,208,WeatherHawk,2013-02-09 20:16:00,
2013-02-09 14:21:00,27.4,18.9,30.19,South,180,11.0,14.0,70,0.00,,,0.00,186,WeatherHawk,2013-02-09 20:21:00,
2013-02-09 14:26:00,27.6,19.1,30.19,South,171,11.0,14.0,70,0.00,,,0.00,184,WeatherHawk,2013-02-09 20:26:00,
2013-02-09 14:31:00,27.6,19.5,30.19,South,185,8.0,12.0,71,0.00,,,0.00,188,WeatherHawk,2013-02-09 20:31:00,
2013-02-09 14:36:00,27.6,19.1,30.18,SSE,164,12.0,12.0,70,0.00,,,0.00,184,WeatherHawk,2013-02-09 20:36:00,
2013-02-09 14:41:00,27.8,19.6,30.19,South,174,6.0,12.0,71,0.00,,,0.00,167,WeatherHawk,2013-02-09 20:41:00,
2013-02-09 14:46:00,27.7,19.5,30.19,SSE,155,10.0,12.0,71,0.00,,,0.00,168,WeatherHawk,2013-02-09 20:46:00,
2013-02-09 14:51:00,27.5,19.0,30.17,South,169,9.0,13.0,70,0.00,,,0.00,161,WeatherHawk,2013-02-09 20:51:00,
2013-02-09 14:56:00,27.6,19.5,30.19,South,183,8.0,13.0,71,0.00,,,0.00,160,WeatherHawk,2013-02-09 20:56:00,
2013-02-09 15:01:00,27.9,20.1,30.18,South,175,6.0,14.0,72,0.00,,,0.00,158,WeatherHawk,2013-02-09 21:01:00,
2013-02-09 15:06:00,27.8,19.6,30.19,SSW,210,10.0,14.0,71,0.00,,,0.00,148,WeatherHawk,2013-02-09 21:06:00,
2013-02-09 15:11:00,28.0,20.2,30.18,South,176,6.0,11.0,72,0.00,,,0.00,136,WeatherHawk,2013-02-09 21:11:00,
2013-02-09 15:16:00,27.7,19.9,30.19,South,176,8.0,11.0,72,0.00,,,0.00,130,WeatherHawk,2013-02-09 21:16:00,
2013-02-09 15:21:00,27.8,20.0,30.18,South,176,9.0,13.0,72,0.00,,,0.00,123,WeatherHawk,2013-02-09 21:21:00,
2013-02-09 15:26:00,27.6,19.7,30.17,South,170,12.0,13.0,72,0.00,,,0.00,124,WeatherHawk,2013-02-09 21:26:00,
2013-02-09 15:31:00,27.8,20.3,30.18,South,178,7.0,11.0,73,0.00,,,0.00,120,WeatherHawk,2013-02-09 21:31:00,
2013-02-09 15:36:00,27.8,20.0,30.17,South,173,8.0,11.0,72,0.00,,,0.00,119,WeatherHawk,2013-02-09 21:36:00,
2013-02-09 15:42:00,27.9,20.4,30.17,South,181,8.0,14.0,73,0.00,,,0.00,104,WeatherHawk,2013-02-09 21:42:00,
2013-02-09 15:47:00,27.9,20.4,30.16,South,175,7.0,14.0,73,0.00,,,0.00,104,WeatherHawk,2013-02-09 21:47:00,
2013-02-09 15:52:00,27.8,20.3,30.16,SSE,163,11.0,12.0,73,0.00,,,0.00,88,WeatherHawk,2013-02-09 21:52:00,
2013-02-09 15:57:00,27.7,20.1,30.16,South,174,10.0,12.0,73,0.00,,,0.00,71,WeatherHawk,2013-02-09 21:57:00,
2013-02-09 16:02:00,27.9,20.7,30.16,SW,217,8.0,11.0,74,0.00,,,0.00,81,WeatherHawk,2013-02-09 22:02:00,
2013-02-09 16:07:00,27.9,20.7,30.15,South,187,5.0,11.0,74,0.00,,,0.00,69,WeatherHawk,2013-02-09 22:07:00,
2013-02-09 16:12:00,27.7,20.5,30.15,South,182,8.0,12.0,74,0.00,,,0.00,61,WeatherHawk,2013-02-09 22:12:00,
2013-02-09 16:17:00,27.5,20.4,30.14,SSE,163,8.0,12.0,74,0.00,,,0.00,58,WeatherHawk,2013-02-09 22:17:00,
2013-02-09 16:22:00,27.6,20.7,30.15,SSE,160,7.0,10.0,75,0.00,,,0.00,48,WeatherHawk,2013-02-09 22:22:00,
2013-02-09 16:27:00,27.7,20.8,30.14,SSE,168,6.0,10.0,75,0.00,,,0.00,52,WeatherHawk,2013-02-09 22:27:00,
2013-02-09 16:32:00,27.7,21.1,30.14,SSE,166,5.0,11.0,76,0.00,,,0.00,45,WeatherHawk,2013-02-09 22:32:00,
2013-02-09 16:37:00,27.5,21.3,30.14,SSE,168,7.0,11.0,77,0.00,,,0.00,36,WeatherHawk,2013-02-09 22:37:00,
2013-02-09 16:43:00,27.3,21.1,30.14,South,169,7.0,11.0,77,0.00,,,0.00,30,WeatherHawk,2013-02-09 22:43:00,
2013-02-09 16:48:00,27.3,21.1,30.14,South,178,8.0,11.0,77,0.00,,,0.00,25,WeatherHawk,2013-02-09 22:48:00,
2013-02-09 16:53:00,27.2,21.3,30.14,SSW,206,8.0,14.0,78,0.00,,,0.00,21,WeatherHawk,2013-02-09 22:53:00,
2013-02-09 16:58:00,27.2,21.5,30.14,SSE,164,6.0,14.0,79,0.00,,,0.00,16,WeatherHawk,2013-02-09 22:58:00,
2013-02-09 17:03:00,27.2,21.6,30.14,SSE,163,8.0,13.0,79,0.00,,,0.00,10,WeatherHawk,2013-02-09 23:03:00,
2013-02-09 17:08:00,27.0,21.7,30.14,SSE,165,6.0,13.0,80,0.00,,,0.00,8,WeatherHawk,2013-02-09 23:08:00,
2013-02-09 17:13:00,27.1,21.8,30.14,South,177,7.0,12.0,80,0.00,,,0.00,6,WeatherHawk,2013-02-09 23:13:00,
2013-02-09 17:18:00,27.0,22.0,30.13,South,171,7.0,12.0,81,0.00,,,0.00,1,WeatherHawk,2013-02-09 23:18:00,
2013-02-09 17:24:00,26.9,21.8,30.14,South,176,7.0,11.0,81,0.00,,,0.00,0,WeatherHawk,2013-02-09 23:24:00,
2013-02-09 17:29:00,27.0,22.3,30.13,SE,146,9.0,11.0,82,0.00,,,0.00,0,WeatherHawk,2013-02-09 23:29:00,
2013-02-09 17:34:00,26.9,21.8,30.14,South,181,9.0,12.0,81,0.00,,,0.00,0,WeatherHawk,2013-02-09 23:34:00,
2013-02-09 17:39:00,26.9,21.9,30.13,SSE,158,10.0,12.0,81,0.00,,,0.00,0,WeatherHawk,2013-02-09 23:39:00,
2013-02-09 17:44:00,26.8,21.7,30.14,South,184,7.0,12.0,81,0.00,,,0.00,0,WeatherHawk,2013-02-09 23:44:00,
2013-02-09 17:49:00,26.9,22.1,30.13,SSE,158,7.0,12.0,82,0.00,,,0.00,0,WeatherHawk,2013-02-09 23:49:00,
2013-02-09 17:54:00,26.8,22.0,30.14,South,173,10.0,13.0,82,0.00,,,0.00,0,WeatherHawk,2013-02-09 23:54:00,
2013-02-09 17:59:00,26.7,21.9,30.14,SE,145,8.0,13.0,82,0.00,,,0.00,0,WeatherHawk,2013-02-09 23:59:00,
2013-02-09 18:04:00,26.7,22.2,30.14,SSE,165,7.0,11.0,83,0.00,,,0.00,0,WeatherHawk,2013-02-10 00:04:00,
2013-02-09 18:10:00,26.7,22.3,30.14,South,180,10.0,11.0,83,0.00,,,0.00,1,WeatherHawk,2013-02-10 00:10:00,
2013-02-09 18:15:00,26.7,22.2,30.13,South,171,8.0,-999.0,83,0.00,,,0.00,0,WeatherHawk,2013-02-10 00:15:00,
2013-02-09 18:20:00,26.8,22.3,30.13,South,180,10.0,-999.0,83,0.00,,,0.00,0,WeatherHawk,2013-02-10 00:20:00,
2013-02-09 18:25:00,26.8,22.3,30.13,South,170,13.0,13.0,83,0.00,,,0.00,0,WeatherHawk,2013-02-10 00:25:00,
2013-02-09 18:30:00,26.6,22.1,30.12,SSE,166,5.0,13.0,83,0.00,,,0.00,0,WeatherHawk,2013-02-10 00:30:00,
2013-02-09 18:35:00,26.7,22.3,30.12,SSE,153,9.0,-999.0,83,0.00,,,0.00,1,WeatherHawk,2013-02-10 00:35:00,
2013-02-09 18:40:00,26.9,22.4,30.12,SE,136,9.0,11.0,83,0.00,,,0.00,0,WeatherHawk,2013-02-10 00:40:00,
2013-02-09 18:45:00,26.8,22.6,30.12,SSE,164,9.0,14.0,84,0.00,,,0.00,0,WeatherHawk,2013-02-10 00:45:00,
2013-02-09 18:50:00,26.9,22.4,30.12,SSE,154,9.0,14.0,83,0.00,,,0.00,0,WeatherHawk,2013-02-10 00:50:00,
2013-02-09 18:55:00,26.8,22.3,30.12,South,175,7.0,14.0,83,0.00,,,0.00,0,WeatherHawk,2013-02-10 00:55:00,
2013-02-09 19:00:00,26.8,22.7,30.12,South,170,9.0,14.0,84,0.00,,,0.00,0,WeatherHawk,2013-02-10 01:00:00,
2013-02-09 19:05:00,26.9,22.7,30.12,SSE,167,12.0,12.0,84,0.00,,,0.00,0,WeatherHawk,2013-02-10 01:05:00,
2013-02-09 19:10:00,26.9,22.7,30.12,South,175,12.0,12.0,84,0.00,,,0.00,0,WeatherHawk,2013-02-10 01:10:00,
2013-02-09 19:15:00,26.9,22.8,30.12,South,170,11.0,13.0,84,0.00,,,0.00,0,WeatherHawk,2013-02-10 01:15:00,
2013-02-09 19:20:00,26.9,22.7,30.11,SE,129,11.0,13.0,84,0.00,,,0.00,0,WeatherHawk,2013-02-10 01:20:00,
2013-02-09 19:25:00,26.8,22.6,30.12,SE,125,7.0,-999.0,84,0.00,,,0.00,0,WeatherHawk,2013-02-10 01:25:00,
2013-02-09 19:30:00,26.9,22.7,30.11,South,171,7.0,0.0,84,0.00,,,0.00,0,WeatherHawk,2013-02-10 01:30:00,
2013-02-09 19:35:00,26.9,22.5,30.11,SSE,159,12.0,14.0,83,0.00,,,0.00,0,WeatherHawk,2013-02-10 01:35:00,
2013-02-09 19:41:00,26.9,22.4,30.11,SE,145,7.0,13.0,83,0.00,,,0.00,0,WeatherHawk,2013-02-10 01:41:00,
2013-02-09 19:46:00,26.8,22.9,30.11,South,177,5.0,13.0,85,0.00,,,0.00,0,WeatherHawk,2013-02-10 01:46:00,
2013-02-09 19:51:00,26.9,23.0,30.12,SSE,165,7.0,14.0,85,0.00,,,0.00,0,WeatherHawk,2013-02-10 01:51:00,
2013-02-09 19:56:00,26.9,22.8,30.12,SSE,164,7.0,14.0,84,0.00,,,0.00,0,WeatherHawk,2013-02-10 01:56:00,
2013-02-09 20:02:00,27.0,23.1,30.11,South,176,8.0,12.0,85,0.00,,,0.00,0,WeatherHawk,2013-02-10 02:02:00,
2013-02-09 20:07:00,27.0,23.1,30.11,SSE,149,6.0,12.0,85,0.00,,,0.00,0,WeatherHawk,2013-02-10 02:07:00,
2013-02-09 20:13:00,27.2,23.6,30.11,SSE,157,8.0,13.0,86,0.00,,,0.00,0,WeatherHawk,2013-02-10 02:13:00,
2013-02-09 20:18:00,27.2,23.3,30.11,South,191,9.0,13.0,85,0.00,,,0.00,0,WeatherHawk,2013-02-10 02:18:00,
2013-02-09 20:23:00,27.3,23.4,30.12,South,178,8.0,11.0,85,0.00,,,0.00,0,WeatherHawk,2013-02-10 02:23:00,
2013-02-09 20:28:00,27.3,23.7,30.12,SSE,162,8.0,11.0,86,0.00,,,0.00,0,WeatherHawk,2013-02-10 02:28:00,
2013-02-09 20:33:00,27.4,23.5,30.12,SSE,166,11.0,14.0,85,0.00,,,0.00,0,WeatherHawk,2013-02-10 02:33:00,
2013-02-09 20:38:00,27.4,23.7,30.11,SE,144,6.0,14.0,86,0.00,,,0.00,0,WeatherHawk,2013-02-10 02:38:00,
2013-02-09 20:44:00,27.4,23.8,30.11,South,182,9.0,10.0,86,0.00,,,0.00,0,WeatherHawk,2013-02-10 02:44:00,
2013-02-09 20:49:00,27.5,23.9,30.11,South,179,7.0,10.0,86,0.00,,,0.00,0,WeatherHawk,2013-02-10 02:49:00,
2013-02-09 20:54:00,27.6,23.7,30.12,SE,145,11.0,11.0,85,0.00,,,0.00,0,WeatherHawk,2013-02-10 02:54:00,
2013-02-09 20:59:00,27.7,24.0,30.11,SE,145,11.0,11.0,86,0.00,,,0.00,1,WeatherHawk,2013-02-10 02:59:00,
2013-02-09 21:04:00,27.7,24.0,30.11,South,172,10.0,11.0,86,0.00,,,0.00,0,WeatherHawk,2013-02-10 03:04:00,
2013-02-09 21:09:00,27.6,24.0,30.11,South,181,8.0,11.0,86,0.00,,,0.00,0,WeatherHawk,2013-02-10 03:09:00,
2013-02-09 21:14:00,27.5,23.9,30.11,SSE,159,7.0,11.0,86,0.00,,,0.00,0,WeatherHawk,2013-02-10 03:14:00,
2013-02-09 21:20:00,27.5,23.9,30.11,SE,146,5.0,11.0,86,0.00,,,0.00,0,WeatherHawk,2013-02-10 03:20:00,
2013-02-09 21:25:00,27.5,24.2,30.10,SE,140,6.0,12.0,87,0.00,,,0.00,0,WeatherHawk,2013-02-10 03:25:00,
2013-02-09 21:31:00,27.6,24.3,30.10,South,172,6.0,9.0,87,0.00,,,0.00,0,WeatherHawk,2013-02-10 03:31:00,
2013-02-09 21:36:00,27.2,23.9,30.10,SSE,163,6.0,9.0,87,0.00,,,0.00,0,WeatherHawk,2013-02-10 03:36:00,
2013-02-09 21:41:00,26.8,23.5,30.10,SSE,161,4.0,9.0,87,0.00,,,0.00,0,WeatherHawk,2013-02-10 03:41:00,
2013-02-09 21:46:00,26.6,23.5,30.10,SSE,166,4.0,9.0,88,0.00,,,0.00,0,WeatherHawk,2013-02-10 03:46:00,
2013-02-09 21:51:00,26.3,23.5,30.09,South,179,4.0,9.0,89,0.00,,,0.00,0,WeatherHawk,2013-02-10 03:51:00,
2013-02-09 21:56:00,26.1,23.5,30.09,SSE,161,5.0,9.0,90,0.00,,,0.00,0,WeatherHawk,2013-02-10 03:56:00,
2013-02-09 22:01:00,25.7,23.2,30.09,South,174,4.0,7.0,90,0.00,,,0.00,0,WeatherHawk,2013-02-10 04:01:00,
2013-02-09 22:06:00,25.3,23.3,30.09,SSE,154,2.0,7.0,92,0.00,,,0.00,0,WeatherHawk,2013-02-10 04:06:00,
2013-02-09 22:11:00,25.5,23.8,30.09,SE,139,1.0,7.0,93,0.00,,,0.00,0,WeatherHawk,2013-02-10 04:11:00,
2013-02-09 22:16:00,24.7,23.3,30.08,SE,139,0.0,7.0,94,0.00,,,0.00,0,WeatherHawk,2013-02-10 04:16:00,
2013-02-09 22:22:00,24.2,23.2,30.09,South,170,0.0,5.0,96,0.00,,,0.00,0,WeatherHawk,2013-02-10 04:22:00,
2013-02-09 22:27:00,22.8,21.8,30.09,South,170,0.0,5.0,96,0.00,,,0.00,0,WeatherHawk,2013-02-10 04:27:00,
2013-02-09 22:32:00,21.5,20.7,30.08,South,170,0.0,3.0,97,0.00,,,0.00,0,WeatherHawk,2013-02-10 04:32:00,
2013-02-09 22:37:00,22.5,22.0,30.08,South,170,0.0,3.0,98,0.00,,,0.00,0,WeatherHawk,2013-02-10 04:37:00,
2013-02-09 22:49:00,21.8,21.8,30.08,South,170,0.0,0.0,100,0.00,,,0.00,0,WeatherHawk,2013-02-10 04:49:00,
2013-02-09 23:00:00,23.8,23.8,30.08,South,170,0.0,-999.0,100,0.00,,,0.00,1,WeatherHawk,2013-02-10 05:00:00,
2013-02-09 23:01:00,23.5,23.5,30.07,ESE,123,0.0,0.0,100,0.00,,,0.00,0,WeatherHawk,2013-02-10 05:01:00,
2013-02-09 23:04:00,23.7,23.7,30.07,ESE,103,0.0,0.0,100,0.00,,,0.00,0,WeatherHawk,2013-02-10 05:04:00,
2013-02-09 23:10:00,22.9,22.9,30.07,ESE,103,0.0,0.0,100,0.00,,,0.00,0,WeatherHawk,2013-02-10 05:10:00,
2013-02-09 23:15:00,22.8,22.8,30.07,ESE,102,0.0,0.0,100,0.00,,,0.00,0,WeatherHawk,2013-02-10 05:15:00,
2013-02-09 23:20:00,22.9,22.9,30.07,East,81,0.0,0.0,100,0.00,,,0.00,0,WeatherHawk,2013-02-10 05:20:00,
2013-02-09 23:25:00,23.4,23.4,30.07,East,81,0.0,0.0,100,0.00,,,0.00,0,WeatherHawk,2013-02-10 05:25:00,
2013-02-09 23:30:00,22.9,22.9,30.07,SSE,168,0.0,0.0,100,0.00,,,0.00,0,WeatherHawk,2013-02-10 05:30:00,
2013-02-09 23:35:00,20.2,20.2,30.07,SSE,168,0.0,0.0,100,0.00,,,0.00,0,WeatherHawk,2013-02-10 05:35:00,
2013-02-09 23:40:00,19.6,19.6,30.07,SSE,168,0.0,0.0,100,0.00,,,0.00,0,WeatherHawk,2013-02-10 05:40:00,
2013-02-09 23:45:00,21.8,21.8,30.06,SSE,168,0.0,0.0,100,0.00,,,0.00,1,WeatherHawk,2013-02-10 05:45:00,
2013-02-09 23:50:00,22.2,22.2,30.06,ENE,78,0.0,0.0,100,0.00,,,0.00,1,WeatherHawk,2013-02-10 05:50:00,
2013-02-09 23:55:00,21.9,21.9,30.06,ENE,78,0.0,0.0,100,0.00,,,0.00,1,WeatherHawk,2013-02-10 05:55:00,